Time,TemperatureF,DewpointF,PressureIn,WindDirection,WindDirectionDegrees,WindSpeedMPH,WindSpeedGustMPH,Humidity,HourlyPrecipIn,Conditions,Clouds,dailyrainin,SoftwareType,DateUTC
2013-06-08 00:27:00,59.8,58.6,29.68,NNE,23,1.6,1.6,96,0.00,,,0.00,WUHU216HW,2013-06-08 04:27:00,
2013-06-08 00:36:00,59.8,58.6,29.68,NE,45,0.2,2.5,96,0.00,,,0.00,WUHU216HW,2013-06-08 04:36:00,
2013-06-08 00:46:00,59.6,58.1,29.68,NE,45,1.3,1.8,95,0.00,,,0.00,WUHU216HW,2013-06-08 04:46:00,
2013-06-08 00:56:00,59.4,58.0,29.68,North,0,0.0,1.1,95,0.00,,,0.00,WUHU216HW,2013-06-08 04:56:00,
2013-06-08 01:07:00,59.4,58.0,29.68,NNE,23,0.4,1.6,95,0.00,,,0.00,WUHU216HW,2013-06-08 05:07:00,
2013-06-08 01:17:00,59.4,58.0,29.67,North,0,0.7,1.1,95,0.00,,,0.00,WUHU216HW,2013-06-08 05:17:00,
2013-06-08 01:27:00,59.2,57.8,29.67,NNE,23,1.1,1.6,95,0.00,,,0.00,WUHU216HW,2013-06-08 05:27:00,
2013-06-08 01:37:00,59.0,57.6,29.67,North,0,0.0,1.6,95,0.00,,,0.00,WUHU216HW,2013-06-08 05:37:00,
2013-06-08 01:47:00,59.0,57.6,29.67,North,0,0.4,1.6,95,0.00,,,0.00,WUHU216HW,2013-06-08 05:47:00,
2013-06-08 01:57:00,58.9,57.4,29.67,NNE,23,0.4,1.6,95,0.00,,,0.00,WUHU216HW,2013-06-08 05:57:00,
2013-06-08 02:07:00,58.7,57.2,29.67,WNW,293,1.1,1.6,95,0.00,,,0.00,WUHU216HW,2013-06-08 06:07:00,
2013-06-08 02:17:00,58.3,56.9,29.67,NNE,23,0.9,1.6,95,0.00,,,0.00,WUHU216HW,2013-06-08 06:17:00,
2013-06-08 02:27:00,58.1,56.7,29.67,NNW,338,0.4,3.4,95,0.00,,,0.00,WUHU216HW,2013-06-08 06:27:00,
2013-06-08 02:37:00,58.0,56.5,29.67,NNW,338,0.9,1.8,95,0.00,,,0.00,WUHU216HW,2013-06-08 06:37:00,
2013-06-08 02:47:00,57.8,56.3,29.68,NW,315,1.6,1.6,95,0.00,,,0.00,WUHU216HW,2013-06-08 06:47:00,
2013-06-08 02:57:00,57.6,56.2,29.69,NNW,338,1.1,4.3,95,0.00,,,0.00,WUHU216HW,2013-06-08 06:57:00,
2013-06-08 03:07:00,57.4,56.0,29.70,NNE,23,2.0,2.5,95,0.00,,,0.00,WUHU216HW,2013-06-08 07:07:00,
2013-06-08 03:17:00,57.2,55.8,29.70,North,0,1.8,4.9,95,0.00,,,0.00,WUHU216HW,2013-06-08 07:17:00,
2013-06-08 03:27:00,57.2,55.8,29.69,WSW,248,2.2,3.8,95,0.00,,,0.00,WUHU216HW,2013-06-08 07:27:00,
2013-06-08 03:37:00,57.2,55.8,29.70,North,0,0.4,4.0,95,0.00,,,0.00,WUHU216HW,2013-06-08 07:37:00,
2013-06-08 03:47:00,57.2,56.1,29.71,NNW,338,0.7,3.4,96,0.00,,,0.00,WUHU216HW,2013-06-08 07:47:00,
2013-06-08 03:57:00,57.2,55.8,29.71,North,0,0.9,5.4,95,0.00,,,0.00,WUHU216HW,2013-06-08 07:57:00,
2013-06-08 04:07:00,57.2,55.8,29.71,West,270,4.0,4.0,95,0.00,,,0.00,WUHU216HW,2013-06-08 08:07:00,
2013-06-08 04:17:00,57.2,55.8,29.72,NW,315,0.9,3.8,95,0.00,,,0.00,WUHU216HW,2013-06-08 08:17:00,
2013-06-08 04:27:00,57.1,55.6,29.73,North,0,0.4,3.4,95,0.00,,,0.00,WUHU216HW,2013-06-08 08:27:00,
2013-06-08 04:37:00,57.2,55.8,29.73,NE,45,2.5,3.4,95,0.00,,,0.00,WUHU216HW,2013-06-08 08:37:00,
2013-06-08 04:47:00,57.1,55.6,29.74,WNW,293,0.4,1.1,95,0.00,,,0.00,WUHU216HW,2013-06-08 08:47:00,
2013-06-08 04:57:00,57.2,55.8,29.75,West,270,0.0,1.1,95,0.00,,,0.00,WUHU216HW,2013-06-08 08:57:00,
2013-06-08 05:07:00,57.2,55.8,29.75,SW,225,0.0,1.8,95,0.00,,,0.00,WUHU216HW,2013-06-08 09:07:00,
2013-06-08 05:17:00,57.2,55.8,29.76,West,270,1.3,1.3,95,0.00,,,0.00,WUHU216HW,2013-06-08 09:17:00,
2013-06-08 05:27:00,57.6,56.4,29.78,West,270,0.4,2.2,96,0.00,,,0.00,WUHU216HW,2013-06-08 09:27:00,
2013-06-08 05:37:00,57.8,56.3,29.78,West,270,0.0,1.1,95,0.00,,,0.00,WUHU216HW,2013-06-08 09:37:00,
2013-06-08 05:47:00,58.0,56.8,29.78,West,270,1.6,1.8,96,0.00,,,0.00,WUHU216HW,2013-06-08 09:47:00,
2013-06-08 05:57:00,58.3,57.4,29.79,WNW,293,1.6,2.5,97,0.00,,,0.00,WUHU216HW,2013-06-08 09:57:00,
2013-06-08 06:07:00,58.9,57.7,29.80,West,270,0.9,1.8,96,0.00,,,0.00,WUHU216HW,2013-06-08 10:07:00,
2013-06-08 06:17:00,59.0,57.9,29.81,South,180,0.0,1.1,96,0.00,,,0.00,WUHU216HW,2013-06-08 10:17:00,
2013-06-08 06:27:00,59.0,57.9,29.82,SSE,158,0.2,0.4,96,0.00,,,0.00,WUHU216HW,2013-06-08 10:27:00,
2013-06-08 06:37:00,59.4,58.2,29.83,South,180,0.4,0.4,96,0.00,,,0.00,WUHU216HW,2013-06-08 10:37:00,
2013-06-08 06:47:00,59.8,58.6,29.83,WSW,248,0.0,0.2,96,0.00,,,0.00,WUHU216HW,2013-06-08 10:47:00,
2013-06-08 06:57:00,60.1,59.0,29.84,NW,315,1.1,1.1,96,0.00,,,0.00,WUHU216HW,2013-06-08 10:57:00,
2013-06-08 07:07:00,60.5,59.6,29.85,WNW,293,0.0,1.1,97,0.00,,,0.00,WUHU216HW,2013-06-08 11:07:00,
2013-06-08 07:17:00,60.8,59.9,29.85,WNW,293,1.1,1.1,97,0.00,,,0.00,WUHU216HW,2013-06-08 11:17:00,
2013-06-08 07:27:00,61.2,60.0,29.86,West,270,1.8,2.0,96,0.00,,,0.00,WUHU216HW,2013-06-08 11:27:00,
2013-06-08 07:37:00,61.6,60.4,29.86,West,270,0.7,1.3,96,0.00,,,0.00,WUHU216HW,2013-06-08 11:37:00,
2013-06-08 07:47:00,61.7,60.6,29.86,WNW,293,1.3,2.5,96,0.00,,,0.00,WUHU216HW,2013-06-08 11:47:00,
2013-06-08 07:57:00,62.8,61.1,29.87,West,270,1.8,2.7,94,0.00,,,0.00,WUHU216HW,2013-06-08 11:57:00,
2013-06-08 08:07:00,63.7,61.4,29.87,West,270,1.1,3.4,92,0.00,,,0.00,WUHU216HW,2013-06-08 12:07:00,
2013-06-08 08:17:00,63.7,60.8,29.87,WNW,293,1.8,3.8,90,0.00,,,0.00,WUHU216HW,2013-06-08 12:17:00,
2013-06-08 08:27:00,64.1,61.2,29.89,West,270,1.1,2.5,90,0.00,,,0.00,WUHU216HW,2013-06-08 12:27:00,
2013-06-08 08:37:00,64.4,61.6,29.89,NNW,338,0.2,1.6,90,0.00,,,0.00,WUHU216HW,2013-06-08 12:37:00,
2013-06-08 08:47:00,64.8,61.6,29.89,North,0,0.4,2.5,89,0.00,,,0.00,WUHU216HW,2013-06-08 12:47:00,
2013-06-08 08:57:00,65.3,61.4,29.91,NNW,338,0.0,3.1,87,0.00,,,0.00,WUHU216HW,2013-06-08 12:57:00,
2013-06-08 09:07:00,65.9,61.6,29.91,WNW,293,1.1,4.3,86,0.00,,,0.00,WUHU216HW,2013-06-08 13:07:00,
2013-06-08 09:17:00,66.6,61.6,29.91,NW,315,1.8,3.8,84,0.00,,,0.00,WUHU216HW,2013-06-08 13:17:00,
2013-06-08 09:27:00,67.0,61.9,29.91,NNW,338,1.8,2.0,84,0.00,,,0.00,WUHU216HW,2013-06-08 13:27:00,
2013-06-08 09:37:00,67.9,61.9,29.92,NW,315,0.9,3.4,81,0.00,,,0.00,WUHU216HW,2013-06-08 13:37:00,
2013-06-08 09:47:00,67.7,61.8,29.93,NW,315,1.6,3.6,81,0.00,,,0.00,WUHU216HW,2013-06-08 13:47:00,
2013-06-08 09:57:00,67.7,62.0,29.93,NW,315,0.9,2.5,82,0.00,,,0.00,WUHU216HW,2013-06-08 13:57:00,
2013-06-08 10:07:00,67.7,62.6,29.93,West,270,0.9,1.8,84,0.00,,,0.00,WUHU216HW,2013-06-08 14:07:00,
2013-06-08 10:17:00,68.0,62.1,29.93,WNW,293,0.4,2.2,81,0.00,,,0.00,WUHU216HW,2013-06-08 14:17:00,
2013-06-08 10:27:00,69.5,63.4,29.93,WNW,293,0.0,3.4,81,0.00,,,0.00,WUHU216HW,2013-06-08 14:27:00,
2013-06-08 10:37:00,69.3,62.5,29.94,WNW,293,2.0,2.5,79,0.00,,,0.00,WUHU216HW,2013-06-08 14:37:00,
2013-06-08 10:47:00,69.7,62.5,29.94,North,0,1.1,2.5,78,0.00,,,0.00,WUHU216HW,2013-06-08 14:47:00,
2013-06-08 10:57:00,70.4,63.6,29.95,ENE,68,1.1,2.9,79,0.00,,,0.00,WUHU216HW,2013-06-08 14:57:00,
2013-06-08 11:07:00,71.5,63.8,29.95,North,0,1.8,3.6,77,0.00,,,0.00,WUHU216HW,2013-06-08 15:07:00,
2013-06-08 11:17:00,70.9,62.2,29.95,NW,315,1.1,3.4,74,0.00,,,0.00,WUHU216HW,2013-06-08 15:17:00,
2013-06-08 11:27:00,71.1,62.7,29.96,WNW,293,2.0,3.4,75,0.00,,,0.00,WUHU216HW,2013-06-08 15:27:00,
2013-06-08 11:37:00,70.7,62.0,29.96,WNW,293,1.3,2.5,74,0.00,,,0.00,WUHU216HW,2013-06-08 15:37:00,
2013-06-08 11:47:00,70.6,62.9,29.96,WSW,248,1.6,1.8,77,0.00,,,0.00,WUHU216HW,2013-06-08 15:47:00,
2013-06-08 11:57:00,71.1,63.5,29.97,NNE,23,0.4,1.8,77,0.00,,,0.00,WUHU216HW,2013-06-08 15:57:00,
2013-06-08 12:07:00,71.6,64.0,29.97,NW,315,1.3,1.6,77,0.00,,,0.00,WUHU216HW,2013-06-08 16:07:00,
2013-06-08 12:17:00,71.5,63.5,29.97,West,270,1.8,2.2,76,0.00,,,0.00,WUHU216HW,2013-06-08 16:17:00,
2013-06-08 12:27:00,71.5,63.5,29.97,WNW,293,0.4,2.0,76,0.00,,,0.00,WUHU216HW,2013-06-08 16:27:00,
2013-06-08 12:37:00,71.3,62.6,29.97,WNW,293,1.8,2.0,74,0.00,,,0.00,WUHU216HW,2013-06-08 16:37:00,
2013-06-08 12:47:00,70.9,62.6,29.98,NW,315,2.5,2.5,75,0.00,,,0.00,WUHU216HW,2013-06-08 16:47:00,
2013-06-08 12:57:00,70.9,62.9,29.97,West,270,0.0,2.0,76,0.00,,,0.00,WUHU216HW,2013-06-08 16:57:00,
2013-06-08 13:07:00,70.9,62.9,29.97,WNW,293,1.1,1.3,76,0.00,,,0.00,WUHU216HW,2013-06-08 17:07:00,
2013-06-08 13:17:00,71.5,63.8,29.97,NW,315,0.9,0.9,77,0.00,,,0.00,WUHU216HW,2013-06-08 17:17:00,
2013-06-08 13:27:00,72.0,64.0,29.98,West,270,1.6,1.6,76,0.00,,,0.00,WUHU216HW,2013-06-08 17:27:00,
2013-06-08 13:37:00,72.4,64.7,29.98,SW,225,0.7,0.7,77,0.00,,,0.00,WUHU216HW,2013-06-08 17:37:00,
2013-06-08 13:47:00,72.4,64.4,29.98,WNW,293,0.0,2.5,76,0.00,,,0.00,WUHU216HW,2013-06-08 17:47:00,
2013-06-08 13:57:00,72.0,63.6,29.98,West,270,0.4,0.9,75,0.00,,,0.00,WUHU216HW,2013-06-08 17:57:00,
2013-06-08 14:07:00,72.7,65.5,29.98,SSW,203,0.0,1.3,78,0.00,,,0.00,WUHU216HW,2013-06-08 18:07:00,
2013-06-08 14:17:00,72.4,64.7,29.98,NW,315,0.2,0.9,77,0.00,,,0.00,WUHU216HW,2013-06-08 18:17:00,
2013-06-08 14:27:00,71.3,63.6,29.99,WNW,293,0.4,1.8,77,0.00,,,0.00,WUHU216HW,2013-06-08 18:27:00,
2013-06-08 14:37:00,70.9,63.3,29.98,West,270,1.1,1.6,77,0.00,,,0.00,WUHU216HW,2013-06-08 18:37:00,
2013-06-08 14:47:00,71.1,63.5,29.98,West,270,0.0,1.6,77,0.00,,,0.00,WUHU216HW,2013-06-08 18:47:00,
2013-06-08 14:57:00,71.5,64.3,29.98,WSW,248,0.4,1.3,78,0.00,,,0.00,WUHU216HW,2013-06-08 18:57:00,
2013-06-08 15:07:00,71.6,63.6,29.98,NNW,338,1.1,3.1,76,0.00,,,0.00,WUHU216HW,2013-06-08 19:07:00,
2013-06-08 15:17:00,71.6,62.9,29.97,West,270,1.1,2.7,74,0.00,,,0.00,WUHU216HW,2013-06-08 19:17:00,
2013-06-08 15:27:00,71.3,63.6,29.99,West,270,0.0,1.1,77,0.00,,,0.00,WUHU216HW,2013-06-08 19:27:00,
2013-06-08 15:37:00,71.3,63.6,29.98,WNW,293,0.9,1.3,77,0.00,,,0.00,WUHU216HW,2013-06-08 19:37:00,
2013-06-08 15:47:00,72.9,65.7,29.98,WSW,248,0.0,3.4,78,0.00,,,0.00,WUHU216HW,2013-06-08 19:47:00,
2013-06-08 15:57:00,73.6,65.3,29.99,North,0,0.7,1.6,75,0.00,,,0.00,WUHU216HW,2013-06-08 19:57:00,
2013-06-08 16:07:00,73.1,63.2,29.99,WNW,293,1.6,3.4,71,0.00,,,0.00,WUHU216HW,2013-06-08 20:07:00,
2013-06-08 16:17:00,72.5,63.5,29.99,West,270,1.8,3.4,73,0.00,,,0.00,WUHU216HW,2013-06-08 20:17:00,
2013-06-08 16:27:00,72.7,64.4,30.00,WNW,293,1.1,1.8,75,0.00,,,0.00,WUHU216HW,2013-06-08 20:27:00,
2013-06-08 16:37:00,72.9,64.5,30.00,NW,315,0.7,2.7,75,0.00,,,0.00,WUHU216HW,2013-06-08 20:37:00,
2013-06-08 16:48:00,72.7,64.0,30.00,NW,315,0.4,1.1,74,0.00,,,0.00,WUHU216HW,2013-06-08 20:48:00,
2013-06-08 16:58:00,72.9,63.8,30.00,West,270,1.1,1.1,73,0.00,,,0.00,WUHU216HW,2013-06-08 20:58:00,
2013-06-08 17:08:00,73.1,64.4,30.00,WNW,293,0.7,1.6,74,0.00,,,0.00,WUHU216HW,2013-06-08 21:08:00,
2013-06-08 17:18:00,75.2,64.4,30.01,NW,315,2.5,4.0,69,0.00,,,0.00,WUHU216HW,2013-06-08 21:18:00,
2013-06-08 17:28:00,74.5,63.7,30.01,West,270,2.5,3.1,69,0.00,,,0.00,WUHU216HW,2013-06-08 21:28:00,
2013-06-08 17:38:00,75.2,64.8,30.01,WNW,293,0.9,1.8,70,0.00,,,0.00,WUHU216HW,2013-06-08 21:38:00,
2013-06-08 17:48:00,75.2,64.4,30.01,NW,315,0.2,3.4,69,0.00,,,0.00,WUHU216HW,2013-06-08 21:48:00,
2013-06-08 17:58:00,74.0,64.1,30.01,West,270,0.4,1.1,71,0.00,,,0.00,WUHU216HW,2013-06-08 21:58:00,
2013-06-08 18:08:00,74.5,64.5,30.01,WNW,293,0.9,1.8,71,0.00,,,0.00,WUHU216HW,2013-06-08 22:08:00,
2013-06-08 18:18:00,74.9,64.1,30.01,West,270,0.2,1.8,69,0.00,,,0.00,WUHU216HW,2013-06-08 22:18:00,
2013-06-08 18:28:00,75.1,64.2,30.02,NW,315,0.2,2.5,69,0.00,,,0.00,WUHU216HW,2013-06-08 22:28:00,
2013-06-08 18:38:00,75.4,65.0,30.03,NW,315,0.4,1.8,70,0.00,,,0.00,WUHU216HW,2013-06-08 22:38:00,
2013-06-08 18:48:00,75.1,64.2,30.03,West,270,0.4,1.6,69,0.00,,,0.00,WUHU216HW,2013-06-08 22:48:00,
2013-06-08 18:58:00,75.1,64.2,30.03,West,270,0.4,1.1,69,0.00,,,0.00,WUHU216HW,2013-06-08 22:58:00,
2013-06-08 19:08:00,74.9,63.6,30.03,West,270,0.4,1.6,68,0.00,,,0.00,WUHU216HW,2013-06-08 23:08:00,
2013-06-08 19:18:00,74.7,63.9,30.04,NW,315,0.4,1.6,69,0.00,,,0.00,WUHU216HW,2013-06-08 23:18:00,
2013-06-08 19:28:00,74.7,64.4,30.04,West,270,0.0,1.1,70,0.00,,,0.00,WUHU216HW,2013-06-08 23:28:00,
2013-06-08 19:38:00,74.3,64.8,30.04,West,270,0.0,0.0,72,0.00,,,0.00,WUHU216HW,2013-06-08 23:38:00,
2013-06-08 19:48:00,73.6,64.4,30.04,West,270,0.0,0.0,73,0.00,,,0.00,WUHU216HW,2013-06-08 23:48:00,
2013-06-08 19:58:00,72.7,64.4,30.04,WSW,248,0.0,0.0,75,0.00,,,0.00,WUHU216HW,2013-06-08 23:58:00,
2013-06-08 20:08:00,72.0,63.6,30.04,WSW,248,0.0,0.0,75,0.00,,,0.00,WUHU216HW,2013-06-09 00:08:00,
2013-06-08 20:18:00,71.1,63.5,30.04,WSW,248,0.0,0.0,77,0.00,,,0.00,WUHU216HW,2013-06-09 00:18:00,
2013-06-08 20:28:00,70.2,63.0,30.05,WSW,248,0.0,0.0,78,0.00,,,0.00,WUHU216HW,2013-06-09 00:28:00,
2013-06-08 20:38:00,69.5,63.0,30.06,WSW,248,0.0,0.0,80,0.00,,,0.00,WUHU216HW,2013-06-09 00:38:00,
2013-06-08 20:48:00,68.9,62.6,30.06,WSW,248,0.0,0.0,80,0.00,,,0.00,WUHU216HW,2013-06-09 00:48:00,
2013-06-08 20:58:00,68.4,62.7,30.06,WSW,248,0.0,0.0,82,0.00,,,0.00,WUHU216HW,2013-06-09 00:58:00,
2013-06-08 21:08:00,68.0,62.7,30.06,West,270,0.0,0.2,83,0.00,,,0.00,WUHU216HW,2013-06-09 01:08:00,
2013-06-08 21:18:00,67.7,62.4,30.07,West,270,0.0,0.0,83,0.00,,,0.00,WUHU216HW,2013-06-09 01:18:00,
2013-06-08 21:28:00,67.5,62.5,30.07,West,270,0.0,0.0,84,0.00,,,0.00,WUHU216HW,2013-06-09 01:28:00,
2013-06-08 21:38:00,67.0,62.3,30.08,West,270,0.0,0.0,85,0.00,,,0.00,WUHU216HW,2013-06-09 01:38:00,
2013-06-08 21:48:00,66.8,62.5,30.08,SSW,203,0.0,0.0,86,0.00,,,0.00,WUHU216HW,2013-06-09 01:48:00,
2013-06-08 21:58:00,66.4,62.4,30.09,SSW,203,0.0,0.0,87,0.00,,,0.00,WUHU216HW,2013-06-09 01:58:00,
2013-06-08 22:08:00,66.1,62.0,30.10,SSW,203,0.0,0.2,87,0.00,,,0.00,WUHU216HW,2013-06-09 02:08:00,
2013-06-08 22:18:00,65.9,61.8,30.10,SSW,203,0.0,0.0,87,0.00,,,0.00,WUHU216HW,2013-06-09 02:18:00,
2013-06-08 22:28:00,65.5,61.6,30.10,SSW,203,0.0,0.0,87,0.00,,,0.00,WUHU216HW,2013-06-09 02:28:00,
2013-06-08 22:38:00,65.2,61.2,30.11,SSW,203,0.0,0.2,87,0.00,,,0.00,WUHU216HW,2013-06-09 02:38:00,
2013-06-08 22:48:00,64.8,60.8,30.11,SSW,203,0.0,0.0,87,0.00,,,0.00,WUHU216HW,2013-06-09 02:48:00,
2013-06-08 22:53:00,64.4,60.6,30.11,SSW,203,0.0,0.0,87,0.00,,,0.00,WUHU216HW,2013-06-09 02:53:00,
2013-06-08 23:08:00,64.1,60.2,30.11,SSW,203,0.0,0.0,87,0.00,,,0.00,WUHU216HW,2013-06-09 03:08:00,
2013-06-08 23:16:00,63.7,59.9,30.11,SSW,203,0.0,0.0,87,0.00,,,0.00,WUHU216HW,2013-06-09 03:16:00,
2013-06-08 23:26:00,63.0,59.4,30.11,SSW,203,0.0,0.0,88,0.00,,,0.00,WUHU216HW,2013-06-09 03:26:00,
2013-06-08 23:37:00,62.6,59.0,30.12,SSW,203,0.0,0.0,88,0.00,,,0.00,WUHU216HW,2013-06-09 03:37:00,
2013-06-08 23:47:00,62.5,58.9,30.12,SSW,203,0.0,0.0,88,0.00,,,0.00,WUHU216HW,2013-06-09 03:47:00,
2013-06-08 23:57:00,62.1,58.6,30.12,SSW,203,0.0,0.0,88,0.00,,,0.00,WUHU216HW,2013-06-09 03:57:00,